User: anonymous   Login
Location: NJAA Observatory
(40.6819°N, 74.8979°W)
Time: 03:22:58
(UTC-04:00)
Language:

Cosmos 2082 - Orbit

View from above orbital plane
View from above orbital plane
View from above satellite
View from above satellite

Ground track
Ground track

The orbit data is extracted from the following two-line orbital elements,

1 20624U 90046A   15087.18304080  .00000378  00000-0  22301-3 0  9997
2 20624 071.0384 114.0423 0015578 193.1589 166.9130 14.14139556282395
Epoch (UTC): 28 March 2015 04:23:34
Eccentricity: 0.0015578
inclination: 71.0384°
perigee height: 834 km
apogee height: 856 km
right ascension of ascending node: 114.0423°
argument of perigee: 193.1589°
revolutions per day: 14.14139556
mean anomaly at epoch: 166.9130°
orbit number at epoch: 28239

The dashed part of the orbit path shows where the satellite is in the earth's shadow,  

DLR